GW4843 Weather Reports


time (UTC)temp
C
wind
direction
speed
KPH
gust
KPH
rain 1hr
cm
rain 24hr
cm
rain mn
cm
humidity
%
barometer
mb
20260504150941 10 316 12.9 14.5 0.00 0.00 0.00 53 1017.1
20260504150437 10 330 17.7 20.9 0.00 0.00 0.00 53 1017.1
20260504140904 8 283 9.7 11.3 0.00 0.00 0.00 61 1017.2
20260504140400 8 300 9.7 12.9 0.00 0.00 0.00 61 1017.3
20260504130325 7 270 11.3 12.9 0.00 0.00 0.00 63 1017.2
20260504120248 7 288 6.4 9.7 0.00 0.00 0.00 61 1017.6
20260504110716 7 261 4.8 4.8 0.00 0.00 0.00 63 1017.4
20260504110212 7 276 3.2 3.2 0.00 0.00 0.00 63 1017.7
20260504100130 7 359 4.8 4.8 0.00 0.00 0.00 60 1017.4
20260504081523 10 12 14.5 20.9 0.00 0.00 0.00 51 1016.5
20260504081019 10 359 17.7 22.5 0.00 0.00 0.00 50 1016.4
20260504080515 10 20 17.7 22.5 0.00 0.00 0.00 49 1016.6
20260504050328 13 23 22.5 33.8 0.00 0.00 0.00 36 1011.7
20260504045825 14 31 25.7 29.0 0.00 0.00 0.00 36 1011.5
20260504045320 15 32 22.5 29.0 0.00 0.00 0.00 35 1011.3
20260504044817 14 3 16.1 16.1 0.00 0.00 0.00 36 1011.0
20260504044315 14 19 8.0 11.3 0.00 0.00 0.00 36 1010.7
20260504043812 14 8 9.7 12.9 0.00 0.00 0.00 36 1010.6
20260504043308 15 20 11.3 17.7 0.00 0.00 0.00 36 1010.3
20260504042806 15 18 8.0 11.3 0.00 0.00 0.00 36 1010.4
20260504042304 15 21 6.4 9.7 0.00 0.00 0.00 35 1010.1
20260504041759 15 10 6.4 9.7 0.00 0.00 0.00 35 1010.1
20260504041255 15 19 8.0 11.3 0.00 0.00 0.00 35 1010.2
20260504040751 15 10 14.5 14.5 0.00 0.00 0.00 34 1010.0
20260504040249 15 23 12.9 14.5 0.00 0.00 0.00 34 1009.7
20260504035744 15 2 6.4 11.3 0.00 0.00 0.00 34 1009.8
20260504035242 15 16 16.1 17.7 0.00 0.00 0.00 33 1009.6
20260504034739 16 27 11.3 12.9 0.00 0.00 0.00 33 1009.5
20260504034236 16 8 14.5 16.1 0.00 0.00 0.00 33 1009.2
20260504033734 15 18 12.9 16.1 0.00 0.00 0.00 33 1009.1
20260504033231 16 12 9.7 11.3 0.00 0.00 0.00 33 1009.0
20260504032728 16 16 11.3 14.5 0.00 0.00 0.00 32 1009.0
20260504032225 16 17 9.7 11.3 0.00 0.00 0.00 31 1008.8
20260504031722 16 3 11.3 12.9 0.00 0.00 0.00 31 1008.8
20260504031219 17 6 11.3 14.5 0.00 0.00 0.00 30 1008.6
20260504030715 16 22 9.7 12.9 0.00 0.00 0.00 29 1008.6
20260504030213 16 37 4.8 4.8 0.00 0.00 0.00 28 1008.5
20260504025709 17 2 6.4 6.4 0.00 0.00 0.00 27 1008.6
20260504025205 17 39 4.8 6.4 0.00 0.00 0.00 26 1008.4
20260504024703 17 351 8.0 11.3 0.00 0.00 0.00 25 1008.3
20260504024159 16 46 4.8 4.8 0.00 0.00 0.00 25 1008.2
20260504023656 17 0 4.8 6.4 0.00 0.00 0.00 24 1008.0
20260504023152 18 10 6.4 6.4 0.00 0.00 0.00 23 1008.0
20260504022648 18 1 6.4 9.7 0.00 0.00 0.00 23 1008.0
20260504022144 18 2 4.8 4.8 0.00 0.00 0.00 23 1008.2
20260504021642 19 3 6.4 6.4 0.00 0.00 0.00 23 1008.2
20260504021139 20 7 6.4 6.4 0.00 0.00 0.00 22 1008.2
20260504020636 20 356 8.0 9.7 0.00 0.00 0.00 22 1008.3
20260504020132 20 356 6.4 6.4 0.00 0.00 0.00 22 1008.3
20260504015629 20 5 9.7 11.3 0.00 0.00 0.00 21 1008.2
20260504015125 21 358 11.3 12.9 0.00 0.00 0.00 21 1008.2
20260504014621 21 9 11.3 14.5 0.00 0.00 0.00 21 1008.3
20260504014118 21 5 14.5 14.5 0.00 0.00 0.00 20 1008.3
20260504013616 22 0 12.9 14.5 0.00 0.00 0.00 20 1008.0
20260504013112 22 64 9.7 14.5 0.00 0.00 0.00 20 1008.0
20260504012610 22 5 12.9 14.5 0.00 0.00 0.00 20 1008.0
20260504012108 22 2 12.9 14.5 0.00 0.00 0.00 20 1008.3
20260504011604 22 18 11.3 11.3 0.00 0.00 0.00 19 1008.0
20260504011100 22 9 12.9 14.5 0.00 0.00 0.00 19 1008.0
20260504010556 23 2 9.7 11.3 0.00 0.00 0.00 19 1007.9
20260504010052 23 355 12.9 16.1 0.00 0.00 0.00 19 1008.0
20260504005549 23 6 12.9 16.1 0.00 0.00 0.00 19 1008.2
20260504005046 23 359 14.5 17.7 0.00 0.00 0.00 18 1008.3
20260504004544 23 12 8.0 9.7 0.00 0.00 0.00 19 1008.2
20260504004041 23 17 11.3 14.5 0.00 0.00 0.00 18 1008.3
20260504003537 23 7 11.3 14.5 0.00 0.00 0.00 18 1008.4
20260504003034 23 350 14.5 16.1 0.00 0.00 0.00 18 1008.4
20260504002531 24 346 8.0 9.7 0.00 0.00 0.00 18 1008.3
20260504002029 24 3 8.0 11.3 0.00 0.00 0.00 18 1008.5
20260504001526 24 346 6.4 6.4 0.00 0.00 0.00 18 1008.5
20260504001022 24 344 9.7 11.3 0.00 0.00 0.00 18 1008.6
20260504000519 24 331 9.7 11.3 0.00 0.00 0.00 18 1008.7
20260504000017 24 317 12.9 14.5 0.00 0.00 0.00 17 1008.6
20260503235515 24 332 6.4 6.4 0.00 0.00 0.00 19 1008.6
20260503235011 24 344 11.3 12.9 0.00 0.00 0.00 19 1008.6
20260503234509 24 339 14.5 16.1 0.00 0.00 0.00 18 1008.6
20260503234008 24 328 17.7 17.7 0.00 0.00 0.00 17 1008.6
20260503233503 24 318 9.7 12.9 0.00 0.00 0.00 19 1008.6
20260503232959 24 351 17.7 20.9 0.00 0.00 0.00 17 1008.7
20260503232456 24 284 11.3 12.9 0.00 0.00 0.00 18 1008.7
20260503231954 25 334 14.5 16.1 0.00 0.00 0.00 18 1009.1
20260503231451 25 298 12.9 14.5 0.00 0.00 0.00 17 1008.9
20260503230948 25 302 17.7 20.9 0.00 0.00 0.00 17 1008.9
20260503230444 24 328 14.5 16.1 0.00 0.00 0.00 18 1009.0
20260503225942 24 324 6.4 6.4 0.00 0.00 0.00 19 1009.0
20260503225439 25 349 8.0 9.7 0.00 0.00 0.00 17 1009.2
20260503224934 25 316 12.9 16.1 0.00 0.00 0.00 18 1009.0
20260503224431 24 322 20.9 24.1 0.00 0.00 0.00 18 1008.9
20260503223929 24 328 16.1 17.7 0.00 0.00 0.00 18 1009.6
20260503223427 25 292 19.3 24.1 0.00 0.00 0.00 18 1009.4
20260503222922 24 309 19.3 20.9 0.00 0.00 0.00 18 1009.4
20260503222421 24 348 12.9 14.5 0.00 0.00 0.00 19 1009.4
20260503221919 24 308 14.5 17.7 0.00 0.00 0.00 19 1009.5
20260503221417 24 329 9.7 12.9 0.00 0.00 0.00 19 1009.7
20260503220913 24 333 11.3 12.9 0.00 0.00 0.00 17 1009.7
20260503220410 25 281 19.3 22.5 0.00 0.00 0.00 17 1009.6
20260503215907 23 331 6.4 11.3 0.00 0.00 0.00 18 1009.8
20260503215404 24 266 12.9 16.1 0.00 0.00 0.00 18 1009.8
20260503214902 24 315 12.9 14.5 0.00 0.00 0.00 17 1009.9
20260503214359 23 313 19.3 24.1 0.00 0.00 0.00 17 1009.9
20260503213856 24 301 17.7 20.9 0.00 0.00 0.00 17 1010.2
20260503213354 24 350 9.7 11.3 0.00 0.00 0.00 19 1010.2
20260503212850 24 334 14.5 17.7 0.00 0.00 0.00 18 1010.2
20260503212348 23 321 16.1 17.7 0.00 0.00 0.00 19 1010.3
20260503211845 23 301 11.3 12.9 0.00 0.00 0.00 18 1010.4
20260503211342 23 314 16.1 17.7 0.00 0.00 0.00 18 1010.7
20260503210837 23 335 14.5 17.7 0.00 0.00 0.00 17 1010.7
20260503210335 24 351 17.7 20.9 0.00 0.00 0.00 18 1010.4
20260503205829 23 302 16.1 17.7 0.00 0.00 0.00 18 1010.8
20260503205326 23 313 9.7 11.3 0.00 0.00 0.00 19 1010.8
20260503204823 23 304 11.3 12.9 0.00 0.00 0.00 17 1011.0
20260503204320 24 307 22.5 25.7 0.00 0.00 0.00 18 1011.1
20260503203817 23 323 19.3 22.5 0.00 0.00 0.00 18 1010.9
20260503203315 23 299 17.7 20.9 0.00 0.00 0.00 17 1011.1
20260503202811 23 307 17.7 22.5 0.00 0.00 0.00 18 1011.3
20260503202310 23 301 17.7 22.5 0.00 0.00 0.00 19 1011.2
20260503201807 23 292 19.3 22.5 0.00 0.00 0.00 18 1011.4
20260503201304 23 350 11.3 12.9 0.00 0.00 0.00 18 1011.5
20260503200802 22 266 14.5 16.1 0.00 0.00 0.00 19 1011.3
20260503200257 23 277 25.7 27.4 0.00 0.00 0.00 18 1011.5
20260503195755 23 316 14.5 17.7 0.00 0.00 0.00 19 1011.5
20260503195251 23 293 20.9 25.7 0.00 0.00 0.00 18 1011.5
20260503194749 22 312 19.3 20.9 0.00 0.00 0.00 18 1011.7
20260503194244 22 312 16.1 20.9 0.00 0.00 0.00 18 1011.7
20260503193741 22 325 16.1 17.7 0.00 0.00 0.00 19 1011.8
20260503193237 22 298 16.1 17.7 0.00 0.00 0.00 18 1011.8
20260503192733 22 281 24.1 29.0 0.00 0.00 0.00 18 1011.7
20260503192228 22 294 19.3 20.9 0.00 0.00 0.00 18 1011.7
20260503191725 22 295 14.5 17.7 0.00 0.00 0.00 20 1012.0
20260503191222 22 338 14.5 16.1 0.00 0.00 0.00 19 1012.1
20260503190719 22 298 16.1 17.7 0.00 0.00 0.00 19 1012.2
20260503190216 22 312 8.0 12.9 0.00 0.00 0.00 19 1012.1
20260503185713 22 273 11.3 12.9 0.00 0.00 0.00 20 1012.2
20260503185208 22 256 17.7 22.5 0.00 0.00 0.00 20 1012.1
20260503184703 22 283 16.1 16.1 0.00 0.00 0.00 20 1012.3
20260503184200 22 272 9.7 17.7 0.00 0.00 0.00 22 1012.3
20260503183656 22 329 8.0 9.7 0.00 0.00 0.00 21 1012.6
20260503183154 22 280 14.5 16.1 0.00 0.00 0.00 21 1012.4
20260503182651 22 287 29.0 33.8 0.00 0.00 0.00 20 1012.7
20260503182150 22 294 11.3 12.9 0.00 0.00 0.00 22 1012.7
20260503181646 22 305 20.9 22.5 0.00 0.00 0.00 21 1013.0
20260503181143 21 317 9.7 11.3 0.00 0.00 0.00 22 1013.1
20260503180640 22 283 24.1 27.4 0.00 0.00 0.00 22 1013.0
20260503180138 21 281 11.3 12.9 0.00 0.00 0.00 23 1013.1
20260503175635 21 277 9.7 12.9 0.00 0.00 0.00 24 1013.2
20260503175132 21 264 14.5 17.7 0.00 0.00 0.00 25 1013.2
20260503174628 21 306 11.3 14.5 0.00 0.00 0.00 27 1013.4
20260503174126 21 311 9.7 11.3 0.00 0.00 0.00 27 1013.5
20260503173620 21 309 8.0 9.7 0.00 0.00 0.00 27 1013.6
20260503173117 21 325 9.7 11.3 0.00 0.00 0.00 29 1013.9
20260503172614 20 312 14.5 16.1 0.00 0.00 0.00 28 1013.8
20260503172112 20 274 12.9 14.5 0.00 0.00 0.00 26 1013.7
20260503171608 20 300 12.9 14.5 0.00 0.00 0.00 28 1013.6
20260503171105 19 296 8.0 9.7 0.00 0.00 0.00 29 1013.6
20260503170602 19 281 6.4 6.4 0.00 0.00 0.00 30 1013.9